Overview Statistics Trail Chart Weather Telemetry Raw packets
 

This is the latest recevied weather packets stored in our database for station/object KD7CTY. If no packets are shown the sender has not sent any weather packets the latest 10 day(s).

<< 107 108 109 110 111 112 113 >>
Time Temp. Humidity Pressure Rain* Wind** Luminosity Snow
1787792026 24.44° C 52% 1014.4 hPa 0 mm - 258 W/m² -
1787791724 24.44° C 52% 1014.2 hPa 0 mm - 274 W/m² -
1787791420 25° C 51% 1014.4 hPa 0 mm - 291 W/m² -
1787791115 25° C 52% 1014.5 hPa 0 mm - 296 W/m² -
1787790810 25° C 51% 1014.4 hPa 0 mm - 331 W/m² -
1787790505 25.56° C 49% 1014.1 hPa 0 mm - 344 W/m² -
1787790201 25.56° C 49% 1014.4 hPa 0 mm - 364 W/m² -
1787789897 25.56° C 49% 1014.5 hPa 0 mm - 383 W/m² -
1787789596 26.11° C 49% 1014.3 hPa 0 mm - 403 W/m² -
1787789295 25.56° C 47% 1014.2 hPa 0 mm - 419 W/m² -
1787788991 25.56° C 48% 1014.4 hPa 0 mm - 434 W/m² -
1787788688 25.56° C 49% 1014.6 hPa 0 mm - 457 W/m² -
1787788383 26.11° C 48% 1014.2 hPa 0 mm - 459 W/m² -
1787788077 26.11° C 48% 1014.5 hPa 0 mm - 459 W/m² -
1787787773 25° C 49% 1014.4 hPa 0 mm - 456 W/m² -
1787787471 25.56° C 49% 1014.4 hPa 0 mm - 470 W/m² -
1787787166 26.11° C 49% 1014.6 hPa 0 mm - 484 W/m² -
1787786865 25.56° C 49% 1014.5 hPa 0 mm - 488 W/m² -
1787786556 26.11° C 49% 1014.4 hPa 0 mm - 500 W/m² -
1787786250 25.56° C 50% 1014.5 hPa 0 mm - 505 W/m² -
1787785940 26.11° C 49% 1014.5 hPa 0 mm - 513 W/m² -
1787785636 25° C 51% 1014.5 hPa 0 mm - 528 W/m² -
1787785335 24.44° C 53% 1014.5 hPa 0 mm - 537 W/m² -
1787785034 25.56° C 53% 1014.6 hPa 0 mm - 547 W/m² -
1787784729 26.11° C 52% 1015 hPa 0 mm - 553 W/m² -

* Rain latest hour (hover to see other rain measurements)
** Current wind speed in m/s (hover to see current wind gust speed)